Shelbyville, IN

10:12 PM EDT on September 26, 2016 (GMT -0400)
Shelbyville Municipal

Weather History for KGEZ - August, 2013

Change the Weather History Date:

Saturday, August 3, 2013

  Actual Average Record
Temperature  
Mean Temperature 73 °F 73 °F  
Max Temperature 83 °F 84 °F 93 °F (2002)
Min Temperature 63 °F 63 °F 57 °F (1999)
Degree Days  
Heating Degree Days 0 0  
Month to date heating degree days 0 0  
Since 1 June heating degree days 7 16  
Since 1 July heating degree days 2 1  
Cooling Degree Days 8 8  
Month to date cooling degree days 21 24  
Year to date cooling degree days 747 597  
Since 1 June cooling degree days 579 516  
Growing Degree Days 25 (Base 50)    
Moisture  
Dew Point 65 °F    
Average Humidity 72    
Maximum Humidity 93    
Minimum Humidity 51    
Precipitation  
Precipitation 0.22 in 0.09 in 0.22 in (2013)
Month to date precipitation 0.22 0.29  
Year to date precipitation 18.36 27.18  
Sea Level Pressure  
Sea Level Pressure 29.98 in    
Wind  
Wind Speed 5 mph (WNW)    
Max Wind Speed 14 mph    
Max Gust Speed 20 mph    
Visibility 8 miles    
Events Rain    
T = Trace of Precipitation, MM = Missing Value Source: NWS Daily Summary

Daily Weather History Graph

Daily Weather History Graph

Search for Another Location

Airport or City:

Trip Planner

Search our weather history database for the weather conditions in past years. The results will help you decide how hot, cold, wet, or windy it might be!

Date:

Astronomy

Aug. 03, 2013 Rise Set
Actual Time 6:44 AM EDT 8:53 PM EDT
Civil Twilight 6:14 AM EDT 9:23 PM EDT
Nautical Twilight 5:38 AM EDT 9:59 PM EDT
Astronomical Twilight 4:58 AM EDT 10:39 PM EDT
Moon 3:53 AM EDT (8/3) 6:35 PM EDT (8/3)
Length of Visible Light 15h 08m
Length of Day
14h 08m
Waning Crescent, 9% of the Moon is Illuminated
Aug 3
Waning Crescent
Aug 6
New
Aug 14
First Quarter
Aug 20
Full
Aug 28
Last Quarter

Hourly Weather History & Observations

Time (EDT) Temp. Heat Index Dew Point Humidity Pressure Visibility Wind Dir Wind Speed Gust Speed Precip Events Conditions
12:53 AM 72.0 °F - 64.9 °F 78% 29.95 in 10.0 mi South 3.5 mph - N/A   Overcast
1:53 AM 72.0 °F - 64.9 °F 78% 29.95 in 10.0 mi South 4.6 mph - 0.00 in Rain Light Rain
2:53 AM 71.1 °F - 66.0 °F 84% 29.94 in 10.0 mi SW 3.5 mph - 0.00 in Rain Light Rain
3:53 AM 71.1 °F - 66.0 °F 84% 29.95 in 8.0 mi West 4.6 mph - 0.00 in Rain Light Rain
4:15 AM 71.6 °F - 66.2 °F 83% 29.97 in 4.0 mi WNW 5.8 mph - 0.01 in Rain Rain
4:53 AM 70.0 °F - 66.9 °F 90% 29.96 in 3.0 mi West 4.6 mph - 0.04 in Rain Light Rain
5:18 AM 69.8 °F - 66.2 °F 88% 29.96 in 2.0 mi SSW 4.6 mph - 0.04 in Rain Rain
5:41 AM 69.8 °F - 66.2 °F 88% 29.96 in 3.0 mi SSW 4.6 mph - 0.07 in Rain Rain
5:53 AM 70.0 °F - 66.9 °F 90% 29.94 in 4.0 mi SSW 4.6 mph - 0.07 in Rain Light Rain
6:53 AM 68.0 °F - 66.0 °F 93% 29.94 in 4.0 mi South 4.6 mph - 0.11 in Rain Rain
7:23 AM 69.8 °F - 66.2 °F 88% 29.95 in 5.0 mi Variable 3.5 mph - 0.00 in Rain Light Rain
7:46 AM 69.8 °F - 66.2 °F 88% 29.97 in 6.0 mi South 4.6 mph - 0.00 in   Overcast
7:53 AM 69.1 °F - 66.0 °F 90% 29.95 in 6.0 mi South 3.5 mph - 0.00 in   Overcast
8:23 AM 69.8 °F - 66.2 °F 88% 29.97 in 7.0 mi Calm Calm - N/A   Overcast
8:53 AM 70.0 °F - 66.0 °F 87% 29.96 in 6.0 mi Calm Calm - N/A   Overcast
9:04 AM 69.8 °F - 66.2 °F 88% 29.98 in 6.0 mi SW 3.5 mph - N/A   Overcast
9:11 AM 69.8 °F - 66.2 °F 88% 29.97 in 7.0 mi Calm Calm - 0.00 in Rain Light Rain
9:53 AM 72.0 °F - 66.9 °F 84% 29.96 in 7.0 mi SSW 3.5 mph - 0.00 in   Overcast
10:39 AM 73.4 °F - 66.2 °F 78% 29.97 in 10.0 mi NNW 4.6 mph - N/A   Overcast
10:53 AM 73.9 °F - 68.0 °F 82% 29.96 in 10.0 mi NNW 4.6 mph - N/A   Overcast
11:02 AM 73.4 °F - 68.0 °F 83% 29.98 in 10.0 mi NW 5.8 mph - N/A   Overcast
11:53 AM 73.9 °F - 66.9 °F 79% 29.99 in 10.0 mi WNW 3.5 mph - N/A   Overcast
12:53 PM 77.0 °F - 68.0 °F 74% 29.99 in 10.0 mi North 5.8 mph - N/A   Overcast
1:13 PM 78.8 °F - 68.0 °F 69% 30.01 in 10.0 mi North 6.9 mph - N/A   Mostly Cloudy
1:53 PM 79.0 °F - 66.9 °F 66% 29.99 in 10.0 mi NNW 4.6 mph - N/A   Overcast
2:06 PM 80.6 °F 82.7 °F 66.2 °F 61% 30.01 in 10.0 mi NW 5.8 mph - N/A   Mostly Cloudy
2:53 PM 80.1 °F 82.3 °F 66.9 °F 64% 29.99 in 8.0 mi NW 11.5 mph - N/A   Scattered Clouds
3:53 PM 81.0 °F 82.7 °F 64.9 °F 58% 29.99 in 10.0 mi North 10.4 mph - N/A   Partly Cloudy
4:53 PM 82.9 °F 84.4 °F 64.0 °F 53% 29.99 in 10.0 mi North 8.1 mph - N/A   Clear
5:53 PM 82.9 °F 83.7 °F 62.1 °F 49% 29.98 in 10.0 mi North 4.6 mph - N/A   Clear
6:53 PM 82.0 °F 83.0 °F 62.1 °F 51% 29.97 in 10.0 mi North 6.9 mph - N/A   Clear
7:53 PM 78.1 °F - 62.1 °F 58% 29.98 in 10.0 mi North 5.8 mph - N/A   Partly Cloudy
8:53 PM 73.9 °F - 63.0 °F 68% 30.00 in 10.0 mi North 6.9 mph - N/A   Partly Cloudy
9:53 PM 71.1 °F - 59.0 °F 66% 30.02 in 10.0 mi North 5.8 mph - N/A   Clear
10:53 PM 68.0 °F - 57.9 °F 70% 30.04 in 10.0 mi North 4.6 mph - N/A   Clear
11:53 PM 64.9 °F - 57.0 °F 75% 30.06 in 10.0 mi North 4.6 mph - N/A   Clear